Tracking 29892 objects as of 21-Nov-2024
HD Live streaming from Space Station
objects crossing your sky now

CZ-2C DEB

Track CZ-2C DEB now!
10-day predictions


NORAD ID: 38863
Int'l Code: 2012-056D
Perigee: 552.6 km
Apogee: 571.7 km
Inclination: 97.6 °
Period: 95.8 minutes
Semi major axis: 6933 km
RCS: 4.6535 m2 (large)
Launch date: October 14, 2012
Source: People's Republic of China (PRC)
Launch site: Taiyaun Space Center, China (TSC)

Note: This is SATELLITE DEBRIS
Your satellite tracking list
Your tracking list is empty




NASA's NSSDC Master Catalog

Two Line Element Set (TLE):
1 38863U 12056D   24325.86240725  .00016949  00000-0  12313-2 0  9993
2 38863  97.6181  27.0741 0013726 235.1214 124.8722 15.03854540656547
Source of the keplerian elements: AFSPC